This is the latest recevied weather packets stored in our database for station/object WW6Q. If no packets are shown the sender has not sent any weather packets the latest 10 day(s).
| Time | Temp. | Humidity | Pressure | Rain* | Wind** | Luminosity | Snow |
|---|---|---|---|---|---|---|---|
| 1788133636 | 22.78° C | 89% | 1016.4 hPa | 0 mm | - | 4 W/m² | - |
| 1788133332 | 22.78° C | 87% | 1016.4 hPa | 0 mm | - | 4 W/m² | - |
| 1788133028 | 23.33° C | 85% | 1016.2 hPa | 0 mm | - | 5 W/m² | - |
| 1788132723 | 23.33° C | 84% | 1016.4 hPa | 0 mm | - | 6 W/m² | - |
| 1788132419 | 23.33° C | 81% | 1016.5 hPa | 0 mm | - | 7 W/m² | - |
| 1788132114 | 23.89° C | 82% | 1016.5 hPa | 0 mm | - | 7 W/m² | - |
| 1788131811 | 23.89° C | 81% | 1016.6 hPa | 0 mm | - | 10 W/m² | - |
| 1788131510 | 23.89° C | 81% | 1016.8 hPa | 0 mm | - | 16 W/m² | - |
| 1788131205 | 23.89° C | 81% | 1016.7 hPa | 0 mm | - | 22 W/m² | - |
| 1788130905 | 23.89° C | 81% | 1016.7 hPa | 0 mm | - | 27 W/m² | - |
| 1788130600 | 23.89° C | 82% | 1016.7 hPa | 0 mm | - | 31 W/m² | - |
| 1788130295 | 23.89° C | 82% | 1016.8 hPa | 0 mm | - | 34 W/m² | - |
| 1788129994 | 24.44° C | 80% | 1017.1 hPa | 0 mm | - | 36 W/m² | - |
| 1788129690 | 24.44° C | 80% | 1017.1 hPa | 0 mm | - | 39 W/m² | - |
| 1788129387 | 25° C | 78% | 1017.1 hPa | 0 mm | - | 46 W/m² | - |
| 1788129087 | 25° C | 77% | 1017.2 hPa | 0 mm | - | 46 W/m² | - |
| 1788128786 | 25° C | 76% | 1017 hPa | 0 mm | - | 44 W/m² | - |
| 1788128483 | 25° C | 75% | 1017 hPa | 0 mm | - | 38 W/m² | - |
| 1788128188 | 25° C | 75% | 1016.9 hPa | 0 mm | - | 40 W/m² | - |
| 1788127874 | 25° C | 75% | 1016.9 hPa | 0 mm | - | 50 W/m² | - |
| 1788127570 | 25° C | 76% | 1017.1 hPa | 0 mm | - | 64 W/m² | - |
| 1788127268 | 25.56° C | 76% | 1017 hPa | 0 mm | - | 79 W/m² | - |
| 1788126967 | 25.56° C | 76% | 1017 hPa | 0 mm | - | 98 W/m² | - |
| 1788126661 | 25.56° C | 75% | 1017.3 hPa | 0 mm | - | 111 W/m² | - |
| 1788126357 | 25.56° C | 73% | 1017.2 hPa | 0 mm | - | 121 W/m² | - |
* Rain latest hour (hover to see other rain measurements)
** Current wind speed in m/s (hover to see current wind gust speed)